Time,TemperatureF,DewpointF,PressureIn,WindDirection,WindDirectionDegrees,WindSpeedMPH,WindSpeedGustMPH,Humidity,HourlyPrecipIn,Conditions,Clouds,dailyrainin,SoftwareType,DateUTC
2013-09-11 00:12:00,58.5,57.9,29.97,North,0,0.0,-999.0,98,-99.99,,,0.00,Acu-Link.com,2013-09-11 04:12:00,
2013-09-11 00:27:00,58.6,58.1,29.98,North,0,0.0,-999.0,98,-99.99,,,0.00,Acu-Link.com,2013-09-11 04:27:00,
2013-09-11 00:42:00,58.6,58.1,29.98,North,0,0.0,-999.0,98,-99.99,,,0.00,Acu-Link.com,2013-09-11 04:42:00,
2013-09-11 00:57:00,58.8,58.3,29.97,North,0,0.0,-999.0,98,-99.99,,,0.00,Acu-Link.com,2013-09-11 04:57:00,
2013-09-11 01:13:00,58.8,58.3,29.97,North,0,0.0,-999.0,98,-99.99,,,0.00,Acu-Link.com,2013-09-11 05:13:00,
2013-09-11 01:28:00,58.8,58.3,29.97,North,0,0.0,-999.0,98,-99.99,,,0.00,Acu-Link.com,2013-09-11 05:28:00,
2013-09-11 01:43:00,58.8,58.3,29.96,North,0,0.0,-999.0,98,-99.99,,,0.00,Acu-Link.com,2013-09-11 05:43:00,
2013-09-11 01:58:00,58.8,58.3,29.95,North,0,0.0,-999.0,98,-99.99,,,0.00,Acu-Link.com,2013-09-11 05:58:00,
2013-09-11 02:13:00,58.8,58.3,29.95,North,0,0.0,-999.0,98,-99.99,,,0.00,Acu-Link.com,2013-09-11 06:13:00,
2013-09-11 02:29:00,59.4,58.8,29.96,North,0,0.0,-999.0,98,-99.99,,,0.00,Acu-Link.com,2013-09-11 06:29:00,
2013-09-11 02:44:00,59.9,59.3,29.96,North,0,0.0,-999.0,98,-99.99,,,0.00,Acu-Link.com,2013-09-11 06:44:00,
2013-09-11 02:59:00,59.7,59.2,29.96,North,0,0.0,-999.0,98,-99.99,,,0.00,Acu-Link.com,2013-09-11 06:59:00,
2013-09-11 03:14:00,59.4,58.8,29.96,North,0,0.0,-999.0,98,-99.99,,,0.00,Acu-Link.com,2013-09-11 07:14:00,
2013-09-11 03:29:00,59.4,58.8,29.95,North,0,0.0,-999.0,98,-99.99,,,0.00,Acu-Link.com,2013-09-11 07:29:00,
2013-09-11 03:45:00,59.4,58.8,29.95,North,0,0.0,-999.0,98,-99.99,,,0.00,Acu-Link.com,2013-09-11 07:45:00,
2013-09-11 04:00:00,59.4,58.8,29.96,North,0,0.0,-999.0,98,-99.99,,,0.01,Acu-Link.com,2013-09-11 08:00:00,
2013-09-11 04:16:00,59.4,58.8,29.96,North,0,0.0,-999.0,98,-99.99,,,0.01,Acu-Link.com,2013-09-11 08:16:00,
2013-09-11 04:31:00,59.5,59.0,29.96,North,0,0.0,-999.0,98,-99.99,,,0.01,Acu-Link.com,2013-09-11 08:31:00,
2013-09-11 04:46:00,59.7,59.2,29.96,North,0,0.0,-999.0,98,-99.99,,,0.01,Acu-Link.com,2013-09-11 08:46:00,
2013-09-11 05:01:00,60.3,59.7,29.96,North,0,0.0,-999.0,98,-99.99,,,0.01,Acu-Link.com,2013-09-11 09:01:00,
2013-09-11 05:16:00,60.4,59.9,29.97,North,0,0.0,-999.0,98,-99.99,,,0.01,Acu-Link.com,2013-09-11 09:16:00,
2013-09-11 05:32:00,62.1,61.5,29.97,North,0,0.0,-999.0,98,-99.99,,,0.01,Acu-Link.com,2013-09-11 09:32:00,
2013-09-11 05:47:00,61.3,60.8,29.97,North,0,0.0,-999.0,98,-99.99,,,0.01,Acu-Link.com,2013-09-11 09:47:00,
2013-09-11 06:02:00,61.7,61.1,29.98,North,0,0.0,-999.0,98,-99.99,,,0.01,Acu-Link.com,2013-09-11 10:02:00,
2013-09-11 06:17:00,61.7,61.1,29.98,North,0,0.0,-999.0,98,-99.99,,,0.01,Acu-Link.com,2013-09-11 10:17:00,
2013-09-11 06:32:00,62.1,61.5,29.98,North,0,0.0,-999.0,98,-99.99,,,0.01,Acu-Link.com,2013-09-11 10:32:00,
2013-09-11 06:48:00,62.8,62.2,29.98,North,0,0.0,-999.0,98,-99.99,,,0.01,Acu-Link.com,2013-09-11 10:48:00,
2013-09-11 07:03:00,63.0,62.4,29.99,WNW,292,0.0,-999.0,98,-99.99,,,0.01,Acu-Link.com,2013-09-11 11:03:00,
2013-09-11 07:18:00,63.5,62.9,29.99,SW,225,0.0,-999.0,98,-99.99,,,0.01,Acu-Link.com,2013-09-11 11:18:00,
2013-09-11 07:33:00,65.1,64.5,30.00,SSW,202,0.0,-999.0,98,-99.99,,,0.01,Acu-Link.com,2013-09-11 11:33:00,
2013-09-11 07:48:00,65.7,65.1,30.00,SSW,202,0.0,-999.0,98,-99.99,,,0.01,Acu-Link.com,2013-09-11 11:48:00,
2013-09-11 08:03:00,66.2,65.6,30.01,SE,135,0.0,-999.0,98,-99.99,,,0.01,Acu-Link.com,2013-09-11 12:03:00,
2013-09-11 08:19:00,66.6,66.0,30.00,SW,225,0.0,-999.0,98,-99.99,,,0.02,Acu-Link.com,2013-09-11 12:19:00,
2013-09-11 08:34:00,67.1,66.5,30.01,SSW,202,0.0,-999.0,98,-99.99,,,0.02,Acu-Link.com,2013-09-11 12:34:00,
2013-09-11 08:49:00,67.5,66.9,30.00,SSW,202,0.0,-999.0,98,-99.99,,,0.02,Acu-Link.com,2013-09-11 12:49:00,
2013-09-11 09:04:00,67.6,67.1,29.99,South,180,0.0,-999.0,98,-99.99,,,0.02,Acu-Link.com,2013-09-11 13:04:00,
2013-09-11 09:19:00,68.0,67.4,29.99,West,270,0.0,-999.0,98,-99.99,,,0.02,Acu-Link.com,2013-09-11 13:19:00,
2013-09-11 09:35:00,68.4,67.8,29.99,WNW,292,0.0,-999.0,98,-99.99,,,0.02,Acu-Link.com,2013-09-11 13:35:00,
2013-09-11 09:50:00,68.5,68.0,29.99,West,270,0.0,-999.0,98,-99.99,,,0.02,Acu-Link.com,2013-09-11 13:50:00,
2013-09-11 10:05:00,69.6,69.0,29.99,WSW,247,0.0,-999.0,98,-99.99,,,0.02,Acu-Link.com,2013-09-11 14:05:00,
2013-09-11 10:20:00,70.3,69.7,29.98,West,270,0.0,-999.0,98,-99.99,,,0.02,Acu-Link.com,2013-09-11 14:20:00,
2013-09-11 10:35:00,70.5,69.9,29.99,SSW,202,2.2,-999.0,98,-99.99,,,0.02,Acu-Link.com,2013-09-11 14:35:00,
2013-09-11 10:51:00,70.5,69.9,29.98,SW,225,0.0,-999.0,98,-99.99,,,0.02,Acu-Link.com,2013-09-11 14:51:00,
2013-09-11 11:06:00,71.6,71.0,29.97,SSE,157,2.2,-999.0,98,-99.99,,,0.02,Acu-Link.com,2013-09-11 15:06:00,
2013-09-11 11:21:00,72.0,71.4,29.97,West,270,0.0,-999.0,98,-99.99,,,0.02,Acu-Link.com,2013-09-11 15:21:00,
2013-09-11 11:36:00,72.7,72.1,29.97,NNE,22,0.0,-999.0,98,-99.99,,,0.02,Acu-Link.com,2013-09-11 15:36:00,
2013-09-11 11:51:00,74.3,73.7,29.97,SW,225,0.0,-999.0,98,-99.99,,,0.02,Acu-Link.com,2013-09-11 15:51:00,
2013-09-11 12:06:00,74.1,73.5,29.98,South,180,2.7,-999.0,98,-99.99,,,0.02,Acu-Link.com,2013-09-11 16:06:00,
2013-09-11 12:22:00,74.5,73.9,29.98,SSW,202,1.1,-999.0,98,-99.99,,,0.02,Acu-Link.com,2013-09-11 16:22:00,
2013-09-11 12:37:00,73.9,73.3,29.97,WSW,247,0.0,-999.0,98,-99.99,,,0.02,Acu-Link.com,2013-09-11 16:37:00,
2013-09-11 12:52:00,72.9,72.3,29.98,SW,225,1.6,-999.0,98,-99.99,,,0.02,Acu-Link.com,2013-09-11 16:52:00,
2013-09-11 13:07:00,73.0,72.4,29.98,WSW,247,0.0,-999.0,98,-99.99,,,0.02,Acu-Link.com,2013-09-11 17:07:00,
2013-09-11 13:22:00,73.0,72.4,29.97,SW,225,0.0,-999.0,98,-99.99,,,0.02,Acu-Link.com,2013-09-11 17:22:00,
2013-09-11 13:38:00,72.7,72.1,29.97,West,270,0.0,-999.0,98,-99.99,,,0.02,Acu-Link.com,2013-09-11 17:38:00,
2013-09-11 13:53:00,72.5,71.9,29.97,North,0,0.0,-999.0,98,-99.99,,,0.02,Acu-Link.com,2013-09-11 17:53:00,
2013-09-11 14:08:00,72.7,72.1,29.97,WSW,247,0.0,-999.0,98,-99.99,,,0.02,Acu-Link.com,2013-09-11 18:08:00,
2013-09-11 14:23:00,72.9,72.3,29.97,WSW,247,0.0,-999.0,98,-99.99,,,0.02,Acu-Link.com,2013-09-11 18:23:00,
2013-09-11 14:39:00,73.0,72.4,29.97,ESE,112,0.0,-999.0,98,-99.99,,,0.02,Acu-Link.com,2013-09-11 18:39:00,
2013-09-11 14:54:00,72.5,71.9,29.97,West,270,0.0,-999.0,98,-99.99,,,0.02,Acu-Link.com,2013-09-11 18:54:00,
2013-09-11 15:09:00,72.3,71.7,29.97,SE,135,0.0,-999.0,98,-99.99,,,0.02,Acu-Link.com,2013-09-11 19:09:00,
2013-09-11 15:24:00,72.0,71.4,29.97,SE,135,1.1,-999.0,98,-99.99,,,0.02,Acu-Link.com,2013-09-11 19:24:00,
2013-09-11 15:39:00,72.0,71.4,29.98,SSE,157,0.0,-999.0,98,-99.99,,,0.02,Acu-Link.com,2013-09-11 19:39:00,
2013-09-11 15:55:00,71.4,70.8,29.97,South,180,0.0,-999.0,98,-99.99,,,0.02,Acu-Link.com,2013-09-11 19:55:00,
2013-09-11 16:10:00,71.4,70.8,29.97,SSE,157,0.0,-999.0,98,-99.99,,,0.02,Acu-Link.com,2013-09-11 20:10:00,
2013-09-11 16:25:00,71.6,71.0,29.95,North,0,0.0,-999.0,98,-99.99,,,0.02,Acu-Link.com,2013-09-11 20:25:00,
2013-09-11 16:40:00,71.4,68.3,29.96,South,180,1.6,-999.0,90,-99.99,,,0.02,Acu-Link.com,2013-09-11 20:40:00,
2013-09-11 16:55:00,71.2,68.1,29.96,SSE,157,0.0,-999.0,90,-99.99,,,0.02,Acu-Link.com,2013-09-11 20:55:00,
2013-09-11 17:11:00,71.1,68.6,29.96,SE,135,0.0,-999.0,92,-99.99,,,0.02,Acu-Link.com,2013-09-11 21:11:00,
2013-09-11 17:26:00,71.1,69.2,29.97,SE,135,0.0,-999.0,94,-99.99,,,0.02,Acu-Link.com,2013-09-11 21:26:00,
2013-09-11 17:41:00,71.2,70.6,29.97,SW,225,0.0,-999.0,98,-99.99,,,0.02,Acu-Link.com,2013-09-11 21:41:00,
2013-09-11 18:12:00,70.3,69.7,29.97,SSE,157,0.0,-999.0,98,-99.99,,,0.02,Acu-Link.com,2013-09-11 22:12:00,
2013-09-11 18:27:00,70.0,69.4,29.95,SW,225,0.0,-999.0,98,-99.99,,,0.02,Acu-Link.com,2013-09-11 22:27:00,
2013-09-11 18:42:00,69.6,69.0,29.95,WSW,247,0.0,-999.0,98,-99.99,,,0.02,Acu-Link.com,2013-09-11 22:42:00,
2013-09-11 18:58:00,69.1,68.5,29.95,North,0,0.0,-999.0,98,-99.99,,,0.02,Acu-Link.com,2013-09-11 22:58:00,
2013-09-11 19:13:00,68.4,67.8,29.95,SSW,202,0.0,-999.0,98,-99.99,,,0.02,Acu-Link.com,2013-09-11 23:13:00,
2013-09-11 19:28:00,67.8,67.2,29.95,SW,225,0.0,-999.0,98,-99.99,,,0.02,Acu-Link.com,2013-09-11 23:28:00,
2013-09-11 19:43:00,67.5,66.9,29.95,SW,225,0.0,-999.0,98,-99.99,,,0.02,Acu-Link.com,2013-09-11 23:43:00,
2013-09-11 19:58:00,66.9,66.3,29.97,North,0,0.0,-999.0,98,-99.99,,,0.02,Acu-Link.com,2013-09-11 23:58:00,
2013-09-11 20:13:00,66.4,65.8,29.96,North,0,0.0,-999.0,98,-99.99,,,0.02,Acu-Link.com,2013-09-12 00:13:00,
2013-09-11 20:29:00,65.8,65.3,29.98,North,0,0.0,-999.0,98,-99.99,,,0.02,Acu-Link.com,2013-09-12 00:29:00,
2013-09-11 20:44:00,65.5,64.9,29.99,North,0,0.0,-999.0,98,-99.99,,,0.02,Acu-Link.com,2013-09-12 00:44:00,
2013-09-11 20:59:00,64.8,64.2,29.98,North,0,0.0,-999.0,98,-99.99,,,0.02,Acu-Link.com,2013-09-12 00:59:00,
2013-09-11 21:14:00,64.4,63.8,29.98,North,0,0.0,-999.0,98,-99.99,,,0.02,Acu-Link.com,2013-09-12 01:14:00,
2013-09-11 21:29:00,64.0,63.5,29.98,North,0,0.0,-999.0,98,-99.99,,,0.02,Acu-Link.com,2013-09-12 01:29:00,
2013-09-11 21:44:00,63.9,63.3,29.97,North,0,0.0,-999.0,98,-99.99,,,0.02,Acu-Link.com,2013-09-12 01:44:00,
2013-09-11 21:59:00,63.7,63.1,29.97,North,0,0.0,-999.0,98,-99.99,,,0.02,Acu-Link.com,2013-09-12 01:59:00,
2013-09-11 22:15:00,63.1,62.6,29.97,North,0,0.0,-999.0,98,-99.99,,,0.02,Acu-Link.com,2013-09-12 02:15:00,
2013-09-11 22:30:00,62.6,62.0,29.97,North,0,0.0,-999.0,98,-99.99,,,0.02,Acu-Link.com,2013-09-12 02:30:00,
2013-09-11 22:45:00,62.2,61.7,29.97,North,0,0.0,-999.0,98,-99.99,,,0.02,Acu-Link.com,2013-09-12 02:45:00,
2013-09-11 23:00:00,62.1,61.5,29.97,North,0,0.0,-999.0,98,-99.99,,,0.02,Acu-Link.com,2013-09-12 03:00:00,
2013-09-11 23:15:00,62.1,61.5,29.96,North,0,0.0,-999.0,98,-99.99,,,0.02,Acu-Link.com,2013-09-12 03:15:00,
2013-09-11 23:30:00,61.7,61.1,29.96,North,0,0.0,-999.0,98,-99.99,,,0.02,Acu-Link.com,2013-09-12 03:30:00,
2013-09-11 23:46:00,61.5,60.9,29.95,North,0,0.0,-999.0,98,-99.99,,,0.02,Acu-Link.com,2013-09-12 03:46:00,